Year,Month,Day,Hour,Minute,Value (Times are PST for temperature in C)
2010,08,24,00,00,13.40
2010,08,24,00,01,13.40
2010,08,24,00,02,13.40
2010,08,24,00,03,13.40
2010,08,24,00,04,13.40
2010,08,24,00,05,13.40
2010,08,24,00,06,13.30
2010,08,24,00,07,13.30
2010,08,24,00,08,13.30
2010,08,24,00,09,13.30
2010,08,24,00,10,13.30
2010,08,24,00,11,13.30
2010,08,24,00,12,13.30
2010,08,24,00,13,13.30
2010,08,24,00,14,13.30
2010,08,24,00,15,13.30
2010,08,24,00,16,13.30
2010,08,24,00,17,13.30
2010,08,24,00,18,13.30
2010,08,24,00,19,13.30
2010,08,24,00,20,13.30
2010,08,24,00,21,13.30
2010,08,24,00,22,13.30
2010,08,24,00,23,13.30
2010,08,24,00,24,13.30
2010,08,24,00,25,13.30
2010,08,24,00,26,13.30
2010,08,24,00,27,13.30
2010,08,24,00,28,13.30
2010,08,24,00,29,13.30
2010,08,24,00,30,13.30
2010,08,24,00,31,13.30
2010,08,24,00,32,13.30
2010,08,24,00,33,13.30
2010,08,24,00,34,13.30
2010,08,24,00,35,13.30
2010,08,24,00,36,13.30
2010,08,24,00,37,13.30
2010,08,24,00,38,13.30
2010,08,24,00,39,13.30
2010,08,24,00,40,13.30
2010,08,24,00,41,13.30
2010,08,24,00,42,13.30
2010,08,24,00,43,13.30
2010,08,24,00,44,13.30
2010,08,24,00,45,13.30
2010,08,24,00,46,13.30
2010,08,24,00,47,13.30
2010,08,24,00,48,13.30
2010,08,24,00,49,13.30
2010,08,24,00,50,13.30
2010,08,24,00,51,13.30
2010,08,24,00,52,13.30
2010,08,24,00,53,13.30
2010,08,24,00,54,13.30
2010,08,24,00,55,13.30
2010,08,24,00,56,13.30
2010,08,24,00,57,13.30
2010,08,24,00,58,13.30
2010,08,24,00,59,13.30
2010,08,24,01,00,13.30
2010,08,24,01,01,13.30
2010,08,24,01,02,13.30
2010,08,24,01,03,13.30
2010,08,24,01,04,13.30
2010,08,24,01,05,13.30
2010,08,24,01,06,13.30
2010,08,24,01,07,13.30
2010,08,24,01,08,13.30
2010,08,24,01,09,13.30
2010,08,24,01,10,13.30
2010,08,24,01,11,13.30
2010,08,24,01,12,13.30
2010,08,24,01,13,13.30
2010,08,24,01,14,13.30
2010,08,24,01,15,13.30
2010,08,24,01,16,13.30
2010,08,24,01,17,13.30
2010,08,24,01,18,13.30
2010,08,24,01,19,13.30
2010,08,24,01,20,13.30
2010,08,24,01,21,13.30
2010,08,24,01,22,13.30
2010,08,24,01,23,13.30
2010,08,24,01,24,13.30
2010,08,24,01,25,13.30
2010,08,24,01,26,13.30
2010,08,24,01,27,13.30
2010,08,24,01,28,13.30
2010,08,24,01,29,13.30
2010,08,24,01,30,13.30
2010,08,24,01,31,13.30
2010,08,24,01,32,13.30
2010,08,24,01,33,13.30
2010,08,24,01,34,13.30
2010,08,24,01,35,13.30
2010,08,24,01,36,13.30
2010,08,24,01,37,13.20
2010,08,24,01,38,13.20
2010,08,24,01,39,13.20
2010,08,24,01,40,13.20
2010,08,24,01,41,13.20
2010,08,24,01,42,13.20
2010,08,24,01,43,13.20
2010,08,24,01,44,13.20
2010,08,24,01,45,13.20
2010,08,24,01,46,13.20
2010,08,24,01,47,13.10
2010,08,24,01,48,13.10
2010,08,24,01,49,13.10
2010,08,24,01,50,13.10
2010,08,24,01,51,13.10
2010,08,24,01,52,13.10
2010,08,24,01,53,13.10
2010,08,24,01,54,13.10
2010,08,24,01,55,13.00
2010,08,24,01,56,13.00
2010,08,24,01,57,13.00
2010,08,24,01,58,13.00
2010,08,24,01,59,13.00
2010,08,24,02,00,13.00
2010,08,24,02,01,13.00
2010,08,24,02,02,13.00
2010,08,24,02,03,13.00
2010,08,24,02,04,13.00
2010,08,24,02,05,13.00
2010,08,24,02,06,13.00
2010,08,24,02,07,13.00
2010,08,24,02,08,13.00
2010,08,24,02,09,13.00
2010,08,24,02,10,13.00
2010,08,24,02,11,12.90
2010,08,24,02,12,12.90
2010,08,24,02,13,12.90
2010,08,24,02,14,12.90
2010,08,24,02,15,12.90
2010,08,24,02,16,12.90
2010,08,24,02,17,12.90
2010,08,24,02,18,12.80
2010,08,24,02,19,12.80
2010,08,24,02,20,12.80
2010,08,24,02,21,12.80
2010,08,24,02,22,12.80
2010,08,24,02,23,12.80
2010,08,24,02,24,12.80
2010,08,24,02,25,12.80
2010,08,24,02,26,12.80
2010,08,24,02,27,12.80
2010,08,24,02,28,12.80
2010,08,24,02,29,12.80
2010,08,24,02,30,12.80
2010,08,24,02,31,12.80
2010,08,24,02,32,12.80
2010,08,24,02,33,12.80
2010,08,24,02,34,12.80
2010,08,24,02,35,12.80
2010,08,24,02,36,12.80
2010,08,24,02,37,12.80
2010,08,24,02,38,12.80
2010,08,24,02,39,12.80
2010,08,24,02,40,12.80
2010,08,24,02,41,12.80
2010,08,24,02,42,12.70
2010,08,24,02,43,12.70
2010,08,24,02,44,12.70
2010,08,24,02,45,12.70
2010,08,24,02,46,12.70
2010,08,24,02,47,12.70
2010,08,24,02,48,12.70
2010,08,24,02,49,12.70
2010,08,24,02,50,12.70
2010,08,24,02,51,12.70
2010,08,24,02,52,12.70
2010,08,24,02,53,12.70
2010,08,24,02,54,12.70
2010,08,24,02,55,12.70
2010,08,24,02,56,12.70
2010,08,24,02,57,12.70
2010,08,24,02,58,12.70
2010,08,24,02,59,12.70
2010,08,24,03,00,12.70
2010,08,24,03,01,12.70
2010,08,24,03,02,12.70
2010,08,24,03,03,12.70
2010,08,24,03,04,12.80
2010,08,24,03,05,12.80
2010,08,24,03,06,12.80
2010,08,24,03,07,12.80
2010,08,24,03,08,12.80
2010,08,24,03,09,12.80
2010,08,24,03,10,12.80
2010,08,24,03,11,12.80
2010,08,24,03,12,12.80
2010,08,24,03,13,12.80
2010,08,24,03,14,12.80
2010,08,24,03,15,12.80
2010,08,24,03,16,12.80
2010,08,24,03,17,12.80
2010,08,24,03,18,12.80
2010,08,24,03,19,12.80
2010,08,24,03,20,12.80
2010,08,24,03,21,12.80
2010,08,24,03,22,12.80
2010,08,24,03,23,12.80
2010,08,24,03,24,12.80
2010,08,24,03,25,12.80
2010,08,24,03,26,12.80
2010,08,24,03,27,12.80
2010,08,24,03,28,12.80
2010,08,24,03,29,12.80
2010,08,24,03,30,12.70
2010,08,24,03,31,12.70
2010,08,24,03,32,12.70
2010,08,24,03,33,12.80
2010,08,24,03,34,12.80
2010,08,24,03,35,12.80
2010,08,24,03,36,12.80
2010,08,24,03,37,12.80
2010,08,24,03,38,12.80
2010,08,24,03,39,12.80
2010,08,24,03,40,12.80
2010,08,24,03,41,12.80
2010,08,24,03,42,12.80
2010,08,24,03,43,12.70
2010,08,24,03,44,12.70
2010,08,24,03,45,12.70
2010,08,24,03,46,12.70
2010,08,24,03,47,12.70
2010,08,24,03,48,12.70
2010,08,24,03,49,12.70
2010,08,24,03,50,12.70
2010,08,24,03,51,12.70
2010,08,24,03,52,12.70
2010,08,24,03,53,12.70
2010,08,24,03,54,12.60
2010,08,24,03,55,12.60
2010,08,24,03,56,12.60
2010,08,24,03,57,12.60
2010,08,24,03,58,12.60
2010,08,24,03,59,12.60
2010,08,24,04,00,12.60
2010,08,24,04,01,12.60
2010,08,24,04,02,12.50
2010,08,24,04,03,12.50
2010,08,24,04,04,12.50
2010,08,24,04,05,12.50
2010,08,24,04,06,12.50
2010,08,24,04,07,12.50
2010,08,24,04,08,12.50
2010,08,24,04,09,12.50
2010,08,24,04,10,12.50
2010,08,24,04,11,12.50
2010,08,24,04,12,12.50
2010,08,24,04,13,12.50
2010,08,24,04,14,12.60
2010,08,24,04,15,12.60
2010,08,24,04,16,12.60
2010,08,24,04,17,12.60
2010,08,24,04,18,12.60
2010,08,24,04,19,12.70
2010,08,24,04,20,12.70
2010,08,24,04,21,12.70
2010,08,24,04,22,12.80
2010,08,24,04,23,12.80
2010,08,24,04,24,12.80
2010,08,24,04,25,12.80
2010,08,24,04,26,12.80
2010,08,24,04,27,12.90
2010,08,24,04,28,13.00
2010,08,24,04,29,13.00
2010,08,24,04,30,13.10
2010,08,24,04,31,13.10
2010,08,24,04,32,13.10
2010,08,24,04,33,13.20
2010,08,24,04,34,13.20
2010,08,24,04,35,13.30
2010,08,24,04,36,13.30
2010,08,24,04,37,13.30
2010,08,24,04,38,13.30
2010,08,24,04,39,13.30
2010,08,24,04,40,13.40
2010,08,24,04,41,13.40
2010,08,24,04,42,13.50
2010,08,24,04,43,13.50
2010,08,24,04,44,13.50
2010,08,24,04,45,13.60
2010,08,24,04,46,13.60
2010,08,24,04,47,13.60
2010,08,24,04,48,13.70
2010,08,24,04,49,13.70
2010,08,24,04,50,13.70
2010,08,24,04,51,13.70
2010,08,24,04,52,13.80
2010,08,24,04,53,13.80
2010,08,24,04,54,13.80
2010,08,24,04,55,13.80
2010,08,24,04,56,13.80
2010,08,24,04,57,13.80
2010,08,24,04,58,13.80
2010,08,24,04,59,13.80
2010,08,24,05,00,13.80
2010,08,24,05,01,13.80
2010,08,24,05,02,13.80
2010,08,24,05,03,13.80
2010,08,24,05,04,13.80
2010,08,24,05,05,13.80
2010,08,24,05,06,13.90
2010,08,24,05,07,13.90
2010,08,24,05,08,13.90
2010,08,24,05,09,13.90
2010,08,24,05,10,13.90
2010,08,24,05,11,13.90
2010,08,24,05,12,13.90
2010,08,24,05,13,13.90
2010,08,24,05,14,13.90
2010,08,24,05,15,14.00
2010,08,24,05,16,14.00
2010,08,24,05,17,14.00
2010,08,24,05,18,14.00
2010,08,24,05,19,14.00
2010,08,24,05,20,14.00
2010,08,24,05,21,14.00
2010,08,24,05,22,14.00
2010,08,24,05,23,14.00
2010,08,24,05,24,14.00
2010,08,24,05,25,14.00
2010,08,24,05,26,14.00
2010,08,24,05,27,14.10
2010,08,24,05,28,14.10
2010,08,24,05,29,14.10
2010,08,24,05,30,14.10
2010,08,24,05,31,14.20
2010,08,24,05,32,14.20
2010,08,24,05,33,14.20
2010,08,24,05,34,14.20
2010,08,24,05,35,14.20
2010,08,24,05,36,14.20
2010,08,24,05,37,14.20
2010,08,24,05,38,14.20
2010,08,24,05,39,14.20
2010,08,24,05,40,14.20
2010,08,24,05,41,14.20
2010,08,24,05,42,14.20
2010,08,24,05,43,14.20
2010,08,24,05,44,14.20
2010,08,24,05,45,14.20
2010,08,24,05,46,14.20
2010,08,24,05,47,14.20
2010,08,24,05,48,14.20
2010,08,24,05,49,14.20
2010,08,24,05,50,14.20
2010,08,24,05,51,14.20
2010,08,24,05,52,14.20
2010,08,24,05,53,14.20
2010,08,24,05,54,14.20
2010,08,24,05,55,14.20
2010,08,24,05,56,14.20
2010,08,24,05,57,14.20
2010,08,24,05,58,14.20
2010,08,24,05,59,14.20
2010,08,24,06,00,14.20
2010,08,24,06,01,14.20
2010,08,24,06,02,14.20
2010,08,24,06,03,14.20
2010,08,24,06,04,14.10
2010,08,24,06,05,14.10
2010,08,24,06,06,14.10
2010,08,24,06,07,14.00
2010,08,24,06,08,14.00
2010,08,24,06,09,14.00
2010,08,24,06,10,13.90
2010,08,24,06,11,13.90
2010,08,24,06,12,13.90
2010,08,24,06,13,13.80
2010,08,24,06,14,13.80
2010,08,24,06,15,13.70
2010,08,24,06,16,13.70
2010,08,24,06,17,13.70
2010,08,24,06,18,13.70
2010,08,24,06,19,13.60
2010,08,24,06,20,13.60
2010,08,24,06,21,13.60
2010,08,24,06,22,13.50
2010,08,24,06,23,13.50
2010,08,24,06,24,13.40
2010,08,24,06,25,13.40
2010,08,24,06,26,13.40
2010,08,24,06,27,13.30
2010,08,24,06,28,13.30
2010,08,24,06,29,13.30
2010,08,24,06,30,13.30
2010,08,24,06,31,13.30
2010,08,24,06,32,13.30
2010,08,24,06,33,13.30
2010,08,24,06,34,13.30
2010,08,24,06,35,13.30
2010,08,24,06,36,13.30
2010,08,24,06,37,13.30
2010,08,24,06,38,13.30
2010,08,24,06,39,13.30
2010,08,24,06,40,13.30
2010,08,24,06,41,13.40
2010,08,24,06,42,13.40
2010,08,24,06,43,13.40
2010,08,24,06,44,13.40
2010,08,24,06,45,13.40
2010,08,24,06,46,13.40
2010,08,24,06,47,13.50
2010,08,24,06,48,13.50
2010,08,24,06,49,13.50
2010,08,24,06,50,13.50
2010,08,24,06,51,13.60
2010,08,24,06,52,13.60
2010,08,24,06,53,13.60
2010,08,24,06,54,13.60
2010,08,24,06,55,13.60
2010,08,24,06,56,13.70
2010,08,24,06,57,13.70
2010,08,24,06,58,13.70
2010,08,24,06,59,13.70
2010,08,24,07,00,13.70
2010,08,24,07,01,13.70
2010,08,24,07,02,13.70
2010,08,24,07,03,13.80
2010,08,24,07,04,13.80
2010,08,24,07,05,13.90
2010,08,24,07,06,13.90
2010,08,24,07,07,13.90
2010,08,24,07,08,14.00
2010,08,24,07,09,14.00
2010,08,24,07,10,14.10
2010,08,24,07,11,14.20
2010,08,24,07,12,14.20
2010,08,24,07,13,14.20
2010,08,24,07,14,14.30
2010,08,24,07,15,14.40
2010,08,24,07,16,14.40
2010,08,24,07,17,14.50
2010,08,24,07,18,14.50
2010,08,24,07,19,14.60
2010,08,24,07,20,14.60
2010,08,24,07,21,14.70
2010,08,24,07,22,14.80
2010,08,24,07,23,14.80
2010,08,24,07,24,14.80
2010,08,24,07,25,14.90
2010,08,24,07,26,14.90
2010,08,24,07,27,15.00
2010,08,24,07,28,15.00
2010,08,24,07,29,15.10
2010,08,24,07,30,15.10
2010,08,24,07,31,15.20
2010,08,24,07,32,15.20
2010,08,24,07,33,15.20
2010,08,24,07,34,15.30
2010,08,24,07,35,15.30
2010,08,24,07,36,15.30
2010,08,24,07,37,15.30
2010,08,24,07,38,15.40
2010,08,24,07,39,15.40
2010,08,24,07,40,15.50
2010,08,24,07,41,15.50
2010,08,24,07,42,15.50
2010,08,24,07,43,15.60
2010,08,24,07,44,15.60
2010,08,24,07,45,15.70
2010,08,24,07,46,15.70
2010,08,24,07,47,15.80
2010,08,24,07,48,15.80
2010,08,24,07,49,15.80
2010,08,24,07,50,15.80
2010,08,24,07,51,15.90
2010,08,24,07,52,15.90
2010,08,24,07,53,16.00
2010,08,24,07,54,16.10
2010,08,24,07,55,16.20
2010,08,24,07,56,16.20
2010,08,24,07,57,16.30
2010,08,24,07,58,16.40
2010,08,24,07,59,16.40
2010,08,24,08,00,16.40
2010,08,24,08,01,16.50
2010,08,24,08,02,16.60
2010,08,24,08,03,16.60
2010,08,24,08,04,16.60
2010,08,24,08,05,16.60
2010,08,24,08,06,16.70
2010,08,24,08,07,16.70
2010,08,24,08,08,16.70
2010,08,24,08,09,16.80
2010,08,24,08,10,16.80
2010,08,24,08,11,16.80
2010,08,24,08,12,16.90
2010,08,24,08,13,16.90
2010,08,24,08,14,16.90
2010,08,24,08,15,16.90
2010,08,24,08,16,16.90
2010,08,24,08,17,16.90
2010,08,24,08,18,16.90
2010,08,24,08,19,17.00
2010,08,24,08,20,17.10
2010,08,24,08,21,17.20
2010,08,24,08,22,17.20
2010,08,24,08,23,17.30
2010,08,24,08,24,17.30
2010,08,24,08,25,17.30
2010,08,24,08,26,17.30
2010,08,24,08,27,17.30
2010,08,24,08,28,17.40
2010,08,24,08,29,17.40
2010,08,24,08,30,17.40
2010,08,24,08,31,17.40
2010,08,24,08,32,17.40
2010,08,24,08,33,17.40
2010,08,24,08,34,17.50
2010,08,24,08,35,17.50
2010,08,24,08,36,17.50
2010,08,24,08,37,17.60
2010,08,24,08,38,17.60
2010,08,24,08,39,17.60
2010,08,24,08,40,17.60
2010,08,24,08,41,17.60
2010,08,24,08,42,17.60
2010,08,24,08,43,17.70
2010,08,24,08,44,17.70
2010,08,24,08,45,17.80
2010,08,24,08,46,17.80
2010,08,24,08,47,17.90
2010,08,24,08,48,17.90
2010,08,24,08,49,17.90
2010,08,24,08,50,18.00
2010,08,24,08,51,18.10
2010,08,24,08,52,18.10
2010,08,24,08,53,18.20
2010,08,24,08,54,18.20
2010,08,24,08,55,18.20
2010,08,24,08,56,18.20
2010,08,24,08,57,18.20
2010,08,24,08,58,18.20
2010,08,24,08,59,18.20
2010,08,24,09,00,18.30
2010,08,24,09,01,18.30
2010,08,24,09,02,18.40
2010,08,24,09,03,18.40
2010,08,24,09,04,18.40
2010,08,24,09,05,18.40
2010,08,24,09,06,18.50
2010,08,24,09,07,18.50
2010,08,24,09,08,18.60
2010,08,24,09,09,18.60
2010,08,24,09,10,18.70
2010,08,24,09,11,18.70
2010,08,24,09,12,18.80
2010,08,24,09,13,18.80
2010,08,24,09,14,18.80
2010,08,24,09,15,18.80
2010,08,24,09,16,18.90
2010,08,24,09,17,18.90
2010,08,24,09,18,18.90
2010,08,24,09,19,18.90
2010,08,24,09,20,19.10
2010,08,24,09,21,19.10
2010,08,24,09,22,19.10
2010,08,24,09,23,19.10
2010,08,24,09,24,19.10
2010,08,24,09,25,19.10
2010,08,24,09,26,19.10
2010,08,24,09,27,19.10
2010,08,24,09,28,19.10
2010,08,24,09,29,19.10
2010,08,24,09,30,19.20
2010,08,24,09,31,19.30
2010,08,24,09,32,19.30
2010,08,24,09,33,19.30
2010,08,24,09,34,19.40
2010,08,24,09,35,19.50
2010,08,24,09,36,19.60
2010,08,24,09,37,19.70
2010,08,24,09,38,19.80
2010,08,24,09,39,19.90
2010,08,24,09,40,19.80
2010,08,24,09,41,19.80
2010,08,24,09,42,19.80
2010,08,24,09,43,19.80
2010,08,24,09,44,19.80
2010,08,24,09,45,19.90
2010,08,24,09,46,19.90
2010,08,24,09,47,20.00
2010,08,24,09,48,20.10
2010,08,24,09,49,20.10
2010,08,24,09,50,20.20
2010,08,24,09,51,20.20
2010,08,24,09,52,20.30
2010,08,24,09,53,20.40
2010,08,24,09,54,20.40
2010,08,24,09,55,20.40
2010,08,24,09,56,20.40
2010,08,24,09,57,20.50
2010,08,24,09,58,20.60
2010,08,24,09,59,20.60
2010,08,24,10,00,20.60
2010,08,24,10,01,20.70
2010,08,24,10,02,20.70
2010,08,24,10,03,20.80
2010,08,24,10,04,20.80
2010,08,24,10,05,20.80
2010,08,24,10,06,20.80
2010,08,24,10,07,20.80
2010,08,24,10,08,20.80
2010,08,24,10,09,20.70
2010,08,24,10,10,20.70
2010,08,24,10,11,20.60
2010,08,24,10,12,20.70
2010,08,24,10,13,20.80
2010,08,24,10,14,20.80
2010,08,24,10,15,20.80
2010,08,24,10,16,20.80
2010,08,24,10,17,20.80
2010,08,24,10,18,20.80
2010,08,24,10,19,20.80
2010,08,24,10,20,20.90
2010,08,24,10,21,20.90
2010,08,24,10,22,20.90
2010,08,24,10,23,20.90
2010,08,24,10,24,21.00
2010,08,24,10,25,21.00
2010,08,24,10,26,20.90
2010,08,24,10,27,20.80
2010,08,24,10,28,20.80
2010,08,24,10,29,20.90
2010,08,24,10,30,21.00
2010,08,24,10,31,21.00
2010,08,24,10,32,21.00
2010,08,24,10,33,21.10
2010,08,24,10,34,21.10
2010,08,24,10,35,21.10
2010,08,24,10,36,21.10
2010,08,24,10,37,21.10
2010,08,24,10,38,21.10
2010,08,24,10,39,21.00
2010,08,24,10,40,21.00
2010,08,24,10,41,21.00
2010,08,24,10,42,21.00
2010,08,24,10,43,21.10
2010,08,24,10,44,21.20
2010,08,24,10,45,21.20
2010,08,24,10,46,21.30
2010,08,24,10,47,21.30
2010,08,24,10,48,21.30
2010,08,24,10,49,21.30
2010,08,24,10,50,21.30
2010,08,24,10,51,21.30
2010,08,24,10,52,21.30
2010,08,24,10,53,21.30
2010,08,24,10,54,21.30
2010,08,24,10,55,21.30
2010,08,24,10,56,21.30
2010,08,24,10,57,21.20
2010,08,24,10,58,21.10
2010,08,24,10,59,21.10
2010,08,24,11,00,21.10
2010,08,24,11,01,21.00
2010,08,24,11,02,21.00
2010,08,24,11,03,20.90
2010,08,24,11,04,20.80
2010,08,24,11,05,20.90
2010,08,24,11,06,20.90
2010,08,24,11,07,20.90
2010,08,24,11,08,20.90
2010,08,24,11,09,20.90
2010,08,24,11,10,20.90
2010,08,24,11,11,20.90
2010,08,24,11,12,21.10
2010,08,24,11,13,21.20
2010,08,24,11,14,21.20
2010,08,24,11,15,21.10
2010,08,24,11,16,21.10
2010,08,24,11,17,21.10
2010,08,24,11,18,21.10
2010,08,24,11,19,21.10
2010,08,24,11,20,21.20
2010,08,24,11,21,21.20
2010,08,24,11,22,21.20
2010,08,24,11,23,21.30
2010,08,24,11,24,21.30
2010,08,24,11,25,21.20
2010,08,24,11,26,21.00
2010,08,24,11,27,20.90
2010,08,24,11,28,20.80
2010,08,24,11,29,20.80
2010,08,24,11,30,20.80
2010,08,24,11,31,20.80
2010,08,24,11,32,20.90
2010,08,24,11,33,20.80
2010,08,24,11,34,20.70
2010,08,24,11,35,20.50
2010,08,24,11,36,20.30
2010,08,24,11,37,20.20
2010,08,24,11,38,20.20
2010,08,24,11,39,20.20
2010,08,24,11,40,20.30
2010,08,24,11,41,20.30
2010,08,24,11,42,20.40
2010,08,24,11,43,20.40
2010,08,24,11,44,20.40
2010,08,24,11,45,20.50
2010,08,24,11,46,20.50
2010,08,24,11,47,20.50
2010,08,24,11,48,20.40
2010,08,24,11,49,20.40
2010,08,24,11,50,20.40
2010,08,24,11,51,20.40
2010,08,24,11,52,20.50
2010,08,24,11,53,20.50
2010,08,24,11,54,20.40
2010,08,24,11,55,20.50
2010,08,24,11,56,20.60
2010,08,24,11,57,20.60
2010,08,24,11,58,20.60
2010,08,24,11,59,20.50
2010,08,24,12,00,20.30
2010,08,24,12,01,20.20
2010,08,24,12,02,20.20
2010,08,24,12,03,20.30
2010,08,24,12,04,20.40
2010,08,24,12,05,20.50
2010,08,24,12,06,20.50
2010,08,24,12,07,20.30
2010,08,24,12,08,20.30
2010,08,24,12,09,20.30
2010,08,24,12,10,20.10
2010,08,24,12,11,20.00
2010,08,24,12,12,19.90
2010,08,24,12,13,19.90
2010,08,24,12,14,19.90
2010,08,24,12,15,20.00
2010,08,24,12,16,20.10
2010,08,24,12,17,20.20
2010,08,24,12,18,20.20
2010,08,24,12,19,20.20
2010,08,24,12,20,20.20
2010,08,24,12,21,20.20
2010,08,24,12,22,20.20
2010,08,24,12,23,20.20
2010,08,24,12,24,20.20
2010,08,24,12,25,20.10
2010,08,24,12,26,20.20
2010,08,24,12,27,20.10
2010,08,24,12,28,20.00
2010,08,24,12,29,19.90
2010,08,24,12,30,19.90
2010,08,24,12,31,19.90
2010,08,24,12,32,19.90
2010,08,24,12,33,19.90
2010,08,24,12,34,19.90
2010,08,24,12,35,19.80
2010,08,24,12,36,19.80
2010,08,24,12,37,19.80
2010,08,24,12,38,19.80
2010,08,24,12,39,19.80
2010,08,24,12,40,19.80
2010,08,24,12,41,19.80
2010,08,24,12,42,19.70
2010,08,24,12,43,19.60
2010,08,24,12,44,19.50
2010,08,24,12,45,19.40
2010,08,24,12,46,19.40
2010,08,24,12,47,19.40
2010,08,24,12,48,19.40
2010,08,24,12,49,19.40
2010,08,24,12,50,19.40
2010,08,24,12,51,19.30
2010,08,24,12,52,19.40
2010,08,24,12,53,19.40
2010,08,24,12,54,19.50
2010,08,24,12,55,19.50
2010,08,24,12,56,19.60
2010,08,24,12,57,19.60
2010,08,24,12,58,19.70
2010,08,24,12,59,19.80
2010,08,24,13,00,19.90
2010,08,24,13,01,19.90
2010,08,24,13,02,20.10
2010,08,24,13,03,20.20
2010,08,24,13,04,20.20
2010,08,24,13,05,20.20
2010,08,24,13,06,20.20
2010,08,24,13,07,20.10
2010,08,24,13,08,20.10
2010,08,24,13,09,20.10
2010,08,24,13,10,20.20
2010,08,24,13,11,20.30
2010,08,24,13,12,20.40
2010,08,24,13,13,20.40
2010,08,24,13,14,20.40
2010,08,24,13,15,20.40
2010,08,24,13,16,20.40
2010,08,24,13,17,20.60
2010,08,24,13,18,20.60
2010,08,24,13,19,20.70
2010,08,24,13,20,20.80
2010,08,24,13,21,20.80
2010,08,24,13,22,20.70
2010,08,24,13,23,20.70
2010,08,24,13,24,20.80
2010,08,24,13,25,20.90
2010,08,24,13,26,20.90
2010,08,24,13,27,21.00
2010,08,24,13,28,20.90
2010,08,24,13,29,20.80
2010,08,24,13,30,20.80
2010,08,24,13,31,20.80
2010,08,24,13,32,20.80
2010,08,24,13,33,20.80
2010,08,24,13,34,20.70
2010,08,24,13,35,20.70
2010,08,24,13,36,20.60
2010,08,24,13,37,20.60
2010,08,24,13,38,20.60
2010,08,24,13,39,20.60
2010,08,24,13,40,20.60
2010,08,24,13,41,20.60
2010,08,24,13,42,20.50
2010,08,24,13,43,20.50
2010,08,24,13,44,20.50
2010,08,24,13,45,20.50
2010,08,24,13,46,20.50
2010,08,24,13,47,20.60
2010,08,24,13,48,20.70
2010,08,24,13,49,20.80
2010,08,24,13,50,20.90
2010,08,24,13,51,20.90
2010,08,24,13,52,20.90
2010,08,24,13,53,21.00
2010,08,24,13,54,21.00
2010,08,24,13,55,21.10
2010,08,24,13,56,21.30
2010,08,24,13,57,21.40
2010,08,24,13,58,21.60
2010,08,24,13,59,21.50
2010,08,24,14,00,21.50
2010,08,24,14,01,21.60
2010,08,24,14,02,21.60
2010,08,24,14,03,21.60
2010,08,24,14,04,21.60
2010,08,24,14,05,21.70
2010,08,24,14,06,21.80
2010,08,24,14,07,21.80
2010,08,24,14,08,21.80
2010,08,24,14,09,22.00
2010,08,24,14,10,22.00
2010,08,24,14,11,22.00
2010,08,24,14,12,22.10
2010,08,24,14,13,22.10
2010,08,24,14,14,22.20
2010,08,24,14,15,22.20
2010,08,24,14,16,22.20
2010,08,24,14,17,22.20
2010,08,24,14,18,22.20
2010,08,24,14,19,22.20
2010,08,24,14,20,22.20
2010,08,24,14,21,22.20
2010,08,24,14,22,22.20
2010,08,24,14,23,22.20
2010,08,24,14,24,22.30
2010,08,24,14,25,22.40
2010,08,24,14,26,22.40
2010,08,24,14,27,22.50
2010,08,24,14,28,22.50
2010,08,24,14,29,22.50
2010,08,24,14,30,22.50
2010,08,24,14,31,22.40
2010,08,24,14,32,22.40
2010,08,24,14,33,22.40
2010,08,24,14,34,22.30
2010,08,24,14,35,22.30
2010,08,24,14,36,22.30
2010,08,24,14,37,22.30
2010,08,24,14,38,22.40
2010,08,24,14,39,22.40
2010,08,24,14,40,22.40
2010,08,24,14,41,22.40
2010,08,24,14,42,22.40
2010,08,24,14,43,22.50
2010,08,24,14,44,22.50
2010,08,24,14,45,22.60
2010,08,24,14,46,22.60
2010,08,24,14,47,22.60
2010,08,24,14,48,22.60
2010,08,24,14,49,22.60
2010,08,24,14,50,22.50
2010,08,24,14,51,22.50
2010,08,24,14,52,22.50
2010,08,24,14,53,22.60
2010,08,24,14,54,22.60
2010,08,24,14,55,22.60
2010,08,24,14,56,22.60
2010,08,24,14,57,22.60
2010,08,24,14,58,22.50
2010,08,24,14,59,22.40
2010,08,24,15,00,22.40
2010,08,24,15,01,22.40
2010,08,24,15,02,22.30
2010,08,24,15,03,22.40
2010,08,24,15,04,22.40
2010,08,24,15,05,22.40
2010,08,24,15,06,22.40
2010,08,24,15,07,22.40
2010,08,24,15,08,22.30
2010,08,24,15,09,22.30
2010,08,24,15,10,22.30
2010,08,24,15,11,22.30
2010,08,24,15,12,22.20
2010,08,24,15,13,22.20
2010,08,24,15,14,22.30
2010,08,24,15,15,22.30
2010,08,24,15,16,22.40
2010,08,24,15,17,22.50
2010,08,24,15,18,22.50
2010,08,24,15,19,22.50
2010,08,24,15,20,22.50
2010,08,24,15,21,22.50
2010,08,24,15,22,22.50
2010,08,24,15,23,22.40
2010,08,24,15,24,22.40
2010,08,24,15,25,22.50
2010,08,24,15,26,22.60
2010,08,24,15,27,22.60
2010,08,24,15,28,22.50
2010,08,24,15,29,22.50
2010,08,24,15,30,22.50
2010,08,24,15,31,22.50
2010,08,24,15,32,22.50
2010,08,24,15,33,22.50
2010,08,24,15,34,22.50
2010,08,24,15,35,22.50
2010,08,24,15,36,22.70
2010,08,24,15,37,22.70
2010,08,24,15,38,22.70
2010,08,24,15,39,22.70
2010,08,24,15,40,22.60
2010,08,24,15,41,22.70
2010,08,24,15,42,22.70
2010,08,24,15,43,22.80
2010,08,24,15,44,22.80
2010,08,24,15,45,22.80
2010,08,24,15,46,22.80
2010,08,24,15,47,22.90
2010,08,24,15,48,23.00
2010,08,24,15,49,23.20
2010,08,24,15,50,23.20
2010,08,24,15,51,23.30
2010,08,24,15,52,23.20
2010,08,24,15,53,23.10
2010,08,24,15,54,23.10
2010,08,24,15,55,23.00
2010,08,24,15,56,22.90
2010,08,24,15,57,22.90
2010,08,24,15,58,22.90
2010,08,24,15,59,22.90
2010,08,24,16,00,23.00
2010,08,24,16,01,23.10
2010,08,24,16,02,23.10
2010,08,24,16,03,23.10
2010,08,24,16,04,23.10
2010,08,24,16,05,23.00
2010,08,24,16,06,22.90
2010,08,24,16,07,22.80
2010,08,24,16,08,22.80
2010,08,24,16,09,22.80
2010,08,24,16,10,22.80
2010,08,24,16,11,22.80
2010,08,24,16,12,22.80
2010,08,24,16,13,22.80
2010,08,24,16,14,22.70
2010,08,24,16,15,22.70
2010,08,24,16,16,22.60
2010,08,24,16,17,22.50
2010,08,24,16,18,22.50
2010,08,24,16,19,22.50
2010,08,24,16,20,22.50
2010,08,24,16,21,22.50
2010,08,24,16,22,22.50
2010,08,24,16,23,22.50
2010,08,24,16,24,22.40
2010,08,24,16,25,22.40
2010,08,24,16,26,22.50
2010,08,24,16,27,22.60
2010,08,24,16,28,22.60
2010,08,24,16,29,22.50
2010,08,24,16,30,22.50
2010,08,24,16,31,22.50
2010,08,24,16,32,22.40
2010,08,24,16,33,22.40
2010,08,24,16,34,22.50
2010,08,24,16,35,22.50
2010,08,24,16,36,22.50
2010,08,24,16,37,22.50
2010,08,24,16,38,22.60
2010,08,24,16,39,22.60
2010,08,24,16,40,22.70
2010,08,24,16,41,22.80
2010,08,24,16,42,22.80
2010,08,24,16,43,22.80
2010,08,24,16,44,22.80
2010,08,24,16,45,22.80
2010,08,24,16,46,22.70
2010,08,24,16,47,22.60
2010,08,24,16,48,22.60
2010,08,24,16,49,22.50
2010,08,24,16,50,22.50
2010,08,24,16,51,22.50
2010,08,24,16,52,22.50
2010,08,24,16,53,22.50
2010,08,24,16,54,22.50
2010,08,24,16,55,22.60
2010,08,24,16,56,22.70
2010,08,24,16,57,22.70
2010,08,24,16,58,22.70
2010,08,24,16,59,22.70
2010,08,24,17,00,22.70
2010,08,24,17,01,22.70
2010,08,24,17,02,22.70
2010,08,24,17,03,22.70
2010,08,24,17,04,22.70
2010,08,24,17,05,22.80
2010,08,24,17,06,22.80
2010,08,24,17,07,22.80
2010,08,24,17,08,22.80
2010,08,24,17,09,22.80
2010,08,24,17,10,22.90
2010,08,24,17,11,22.90
2010,08,24,17,12,23.00
2010,08,24,17,13,23.10
2010,08,24,17,14,23.10
2010,08,24,17,15,23.20
2010,08,24,17,16,23.20
2010,08,24,17,17,23.10
2010,08,24,17,18,23.10
2010,08,24,17,19,23.10